Retour au catalogue

STARLINK-33850

ActifCommunicationsVLEO
NORAD 63679·PAYLOAD·🇺🇸 United States

Lancé Apr 28, 2025 depuis Cape Canaveral Space Force Station

Loading…

Prochains Passages (prochaines 24 heures)

TLE

FraisSource: CelesTrak SupGP

Époque: Sep 14, 2026, 22:57 UTC

1 63679C 25085R   26257.95673611  .00035956  00000+0  13025-2 0  2578
2 63679  43.0038  41.9948 0001638 264.0005 192.1266 15.27556860    14

Suivez STARLINK-33850 en temps réel avec AllMySat

Download on the App Store